Vorticity
14 10 10 10 10 12 12 10 9 9 10 10 10 10 10 10 9 8 6 5 5 6 7 8 9 9 8 8 8 9 9 9 8 9 12 14 13 8 7 7 7 7 7 6 6 5 4 4 4 4 5 5 5 5 6 7 7 6 5 4 4 4 4 4 3 4 6 7 8 8 9 10 9 9 11 13 14 14 14 14 11 8 6 5 6
7 6 9 9 10 13 12 9 9 9 10 9 9 9 9 9 9 7 6 6 6 6 6 7 8 8 7 7 8 9 9 9 8 8 11 14 13 10 7 6 7 7 7 7 6 5 4 5 5 6 5 5 5 6 6 6 5 5 4 3 3 3 4 5 3 4 7 8 8 9 9 9 9 10 12 13 14 13 13 13 10 8 6 3 4
4 6 8 7 11 14 12 10 9 9 10 8 9 10 8 8 8 7 7 6 6 7 7 8 8 7 7 6 6 9 9 9 8 7 10 13 14 12 9 7 7 6 6 7 6 5 5 5 6 6 6 6 6 6 5 5 6 6 5 5 4 4 5 5 3 4 7 8 9 9 10 9 9 10 13 13 14 13 12 12 10 8 6 2 4
4 7 8 10 13 15 13 11 10 9 9 9 10 9 7 8 8 7 7 6 6 7 7 8 8 6 6 6 7 9 9 9 7 5 7 11 15 14 10 7 6 6 6 6 5 6 6 6 6 6 6 7 6 5 6 6 6 5 5 4 3 4 7 4 2 5 8 9 10 10 10 9 9 11 13 14 13 12 11 11 9 8 5 2 6
8 9 11 13 13 15 14 10 9 9 9 9 10 8 6 7 7 7 7 6 6 8 7 8 8 6 6 7 8 9 9 9 8 6 6 9 13 15 13 9 7 6 6 5 6 6 6 6 6 7 8 7 7 7 6 5 7 8 8 7 6 7 7 4 3 7 10 10 10 10 8 8 10 12 13 14 13 12 11 11 9 7 4 3 8
10 8 12 13 11 13 13 9 9 10 10 10 9 7 6 6 6 7 7 7 7 8 8 7 7 6 7 7 8 9 10 10 8 6 6 7 11 14 14 13 10 9 7 6 6 6 7 8 8 9 9 8 8 7 5 6 7 6 6 6 9 10 6 3 6 9 10 11 10 8 8 9 11 12 13 14 13 11 11 12 10 6 3 4 9
7 7 11 12 11 13 12 10 9 9 10 10 8 6 6 5 6 8 8 8 9 8 8 8 7 7 7 6 7 9 11 10 8 7 5 6 9 12 14 15 13 12 10 9 8 8 9 11 10 10 9 8 7 5 5 7 5 15 28 18 3 3 6 6 9 11 10 11 9 8 8 10 12 13 13 14 12 11 11 12 10 6 3 6 9
4 6 8 10 13 14 11 9 9 9 10 9 7 6 6 4 5 7 8 8 8 8 9 8 6 6 6 6 7 9 11 11 9 7 5 5 7 9 11 13 12 12 11 10 11 11 12 11 10 10 8 5 5 4 6 6 2 22 49 30 -3 -2 8 9 11 12 11 11 8 7 9 10 12 13 14 14 12 11 12 12 10 6 4 6 8
7 9 9 11 13 11 9 9 8 9 9 7 7 7 5 4 5 6 8 8 8 8 9 9 7 6 6 5 5 8 11 11 10 8 6 5 6 7 9 9 10 11 11 11 13 11 10 9 7 7 5 4 6 4 5 7 1 5 19 12 -1 6 12 9 11 13 11 9 7 7 9 11 13 13 14 13 11 11 12 12 10 7 4 5 6
11 13 14 13 11 8 9 8 6 8 9 8 8 7 5 5 4 5 6 7 8 9 10 9 7 6 6 4 4 7 9 10 10 9 7 5 6 6 7 8 8 8 9 9 11 9 5 3 3 5 6 6 7 5 4 9 6 -1 2 7 9 11 10 9 13 12 9 7 6 7 10 12 12 14 14 12 10 11 12 12 11 8 5 4 5
9 10 14 14 12 8 7 7 7 9 10 9 9 7 5 4 3 4 7 7 9 10 10 10 7 6 5 4 4 6 8 9 9 8 8 7 6 6 7 7 6 7 8 7 8 8 5 3 4 6 8 7 6 8 10 8 2 -1 5 10 10 9 9 10 12 9 7 6 6 8 11 12 12 14 13 11 9 9 11 11 11 10 7 6 6
3 5 11 13 12 10 8 7 8 9 9 10 9 6 4 4 3 3 6 8 10 10 10 10 8 6 4 3 5 7 6 7 7 8 8 7 6 7 6 7 7 7 8 6 6 6 5 6 7 6 6 7 8 11 12 4 -1 4 10 9 7 8 9 9 10 8 6 6 7 9 11 12 13 14 13 10 7 7 8 10 10 10 9 8 8
1 5 9 10 10 11 10 8 8 9 10 9 8 6 4 3 3 4 5 8 11 11 11 10 7 6 5 4 6 7 5 7 7 7 7 7 7 7 6 7 7 7 7 6 5 6 5 6 8 7 7 8 9 8 3 -0 5 11 9 5 6 9 10 9 9 8 7 6 8 10 11 12 12 13 12 11 8 7 7 8 8 9 10 10 10
3 5 6 7 8 10 10 8 8 9 8 8 8 7 5 4 3 3 3 7 12 12 12 11 8 5 5 5 7 7 6 6 6 7 8 8 8 8 8 8 7 6 7 6 6 7 7 8 8 9 8 7 4 2 2 8 13 10 3 4 9 11 11 10 9 8 7 6 7 10 11 11 11 11 10 10 9 8 9 8 8 8 9 11 12
3 6 6 6 6 9 11 9 8 7 7 8 8 6 5 4 3 3 4 6 11 13 11 10 8 6 6 7 8 7 6 6 6 6 7 7 8 8 8 7 7 7 8 9 9 9 9 9 8 7 6 3 1 3 10 16 11 3 3 9 12 12 10 9 9 8 6 6 8 10 11 11 11 10 9 9 9 9 10 10 9 8 9 11 12
5 7 8 6 5 7 10 9 8 8 7 6 6 7 6 3 2 4 4 4 9 12 11 9 7 6 7 8 8 7 6 5 5 6 6 6 8 8 7 7 7 8 9 9 9 9 9 9 8 6 3 -0 1 6 11 10 4 2 9 13 12 11 10 10 9 6 5 6 8 10 11 11 12 11 10 10 10 11 11 11 11 11 11 12 11
5 7 10 9 7 7 8 9 9 8 7 7 5 6 6 4 4 4 2 3 9 11 8 6 6 6 8 9 8 7 3 2 5 7 7 7 7 7 8 8 7 7 8 9 8 8 10 9 6 3 0 -0 4 8 8 6 6 9 12 12 10 10 10 9 7 6 6 7 8 10 11 11 10 8 8 9 11 12 12 12 12 12 11 12 12
5 7 10 10 9 7 6 9 10 8 8 6 4 6 8 5 4 3 1 4 7 4 1 2 4 7 8 6 4 4 -0 -0 5 6 4 6 9 10 10 9 8 8 8 9 9 9 8 6 3 1 1 4 7 8 7 7 9 11 11 11 10 10 10 9 6 5 6 6 8 10 10 10 9 6 6 9 10 10 11 12 12 12 10 11 12
9 9 9 9 10 9 6 8 11 10 9 6 5 7 7 4 4 3 0 4 6 4 7 10 8 8 10 6 3 5 5 5 7 8 8 9 11 13 13 9 7 8 8 8 8 8 5 2 1 3 4 7 7 7 7 8 9 11 13 11 10 9 9 8 6 5 6 7 8 10 11 11 7 4 6 9 9 9 11 11 11 11 11 11 13
9 9 9 9 8 8 7 7 10 10 8 6 7 6 4 3 5 2 0 4 6 5 10 16 12 8 12 12 4 3 9 13 12 12 11 9 10 13 11 6 5 8 9 7 6 4 2 2 4 6 6 6 7 9 10 11 12 13 12 9 9 10 9 7 6 6 6 6 8 11 13 11 6 5 8 9 10 11 11 13 14 14 13 13 14
5 4 8 12 9 8 8 7 10 12 9 6 7 7 5 3 4 4 3 3 5 5 5 10 12 10 15 15 4 -1 2 3 2 5 8 13 20 17 5 1 7 9 8 6 4 2 3 5 7 7 7 8 11 13 13 13 13 12 10 9 10 10 8 6 5 6 6 7 10 12 12 7 4 7 10 10 11 13 14 18 19 17 17 18 16
7 5 9 13 11 9 11 10 9 11 12 9 8 8 7 4 3 6 4 1 5 7 4 9 15 15 16 16 12 12 9 -1 0 11 14 16 21 14 1 3 9 8 5 3 2 3 5 7 7 7 9 12 14 14 13 13 13 10 9 10 11 8 7 6 5 5 6 8 10 9 6 4 6 10 12 11 13 17 19 21 20 19 21 18 9
4 3 6 14 14 12 15 16 14 12 11 9 8 8 6 3 3 6 5 4 5 4 5 13 15 8 9 14 15 17 16 7 7 13 9 7 11 8 4 8 8 4 4 3 3 6 7 8 9 10 12 14 13 12 12 12 11 10 10 11 10 7 6 6 6 6 7 8 9 6 3 5 9 12 12 12 14 18 20 22 22 23 19 9 2
3 -2 -3 5 11 12 14 15 18 18 12 6 7 8 6 5 7 8 6 3 2 1 6 18 16 3 3 11 12 11 12 11 10 8 5 6 9 5 4 7 5 4 6 6 6 9 8 8 12 13 13 13 12 11 12 11 10 11 11 11 9 7 6 6 6 7 7 7 7 5 3 7 11 12 11 12 14 16 20 22 22 19 11 3 3
10 3 -3 -4 -4 2 10 14 19 22 15 9 10 9 5 4 6 8 8 5 4 4 6 12 16 11 4 7 12 12 10 10 11 9 6 6 6 2 3 5 5 6 8 8 8 9 8 11 15 15 13 11 10 10 11 11 11 11 11 10 9 7 6 6 6 7 7 8 7 5 5 9 12 11 11 12 12 15 20 23 21 16 10 6 5
15 11 13 12 4 1 6 13 23 28 23 17 14 9 7 9 9 10 10 5 -1 3 10 13 16 13 6 7 15 15 10 8 8 6 5 3 2 3 4 5 7 8 8 7 7 7 10 14 16 13 10 9 9 10 10 10 11 11 10 9 9 6 6 7 7 7 7 8 7 5 7 10 11 11 11 10 10 14 19 22 20 15 8 6 6
15 10 13 18 15 7 1 4 15 26 27 21 16 11 7 10 13 12 9 6 6 10 16 16 11 7 5 9 17 20 17 10 2 0 3 3 3 5 6 7 9 9 6 6 7 8 12 15 13 8 6 8 11 10 9 11 13 10 7 7 7 7 8 9 7 7 9 9 7 5 8 11 11 10 10 9 9 13 17 18 18 14 7 5 7
14 10 8 10 13 11 6 1 5 18 29 24 17 14 9 8 14 11 4 12 22 19 12 9 8 7 6 7 11 16 14 6 -1 1 6 4 4 7 7 8 9 7 7 9 10 11 14 13 8 4 6 10 11 9 8 11 10 4 2 5 8 9 9 8 7 8 10 9 6 6 9 11 10 9 10 9 10 13 15 15 17 18 13 8 8
5 3 2 6 9 8 9 8 4 14 31 29 18 18 18 15 16 12 3 8 15 11 7 8 7 6 7 7 5 4 4 4 5 6 4 1 4 7 8 8 10 10 11 13 13 13 14 10 3 3 9 11 9 8 10 8 3 0 3 7 9 9 8 8 8 10 11 8 5 7 10 10 9 8 8 8 9 13 15 14 14 17 15 7 4
3 3 3 6 7 6 9 12 6 12 34 39 23 15 16 12 9 8 7 9 10 6 6 7 4 3 7 8 5 2 2 4 3 -0 -2 1 5 7 7 8 10 10 11 14 14 13 11 6 1 4 9 10 8 9 11 9 6 6 8 9 9 8 8 10 11 11 10 6 5 9 11 10 9 8 7 7 9 13 17 15 12 14 14 9 5
2 5 5 5 9 12 12 11 10 20 40 43 25 11 9 7 3 3 5 8 8 6 5 4 5 7 7 6 5 5 4 3 1 -0 2 4 6 7 9 11 11 9 10 14 14 9 6 6 5 5 8 9 7 7 10 11 11 10 9 9 9 8 9 13 13 10 8 5 6 10 12 10 8 7 6 7 9 13 17 15 11 11 12 11 9
4 11 14 11 12 14 11 11 23 39 47 40 25 13 7 4 3 2 3 5 6 5 5 5 6 6 5 4 4 5 5 4 4 3 3 6 8 10 12 14 13 10 11 15 15 10 7 6 5 5 7 9 8 8 11 12 11 10 10 10 8 8 12 14 11 8 7 6 8 11 12 9 8 7 6 7 10 15 17 15 12 10 10 12 13
12 12 13 12 12 16 14 15 29 45 48 41 30 19 8 3 2 2 3 6 7 5 4 5 5 4 4 4 4 5 5 4 2 2 5 9 12 11 11 13 14 18 26 27 19 12 8 5 3 7 11 12 12 14 14 12 10 9 10 9 8 10 12 10 7 7 8 7 9 12 12 9 7 7 6 6 10 15 16 14 13 10 7 10 13
14 15 19 21 23 23 16 15 28 40 39 30 22 15 9 5 2 2 4 6 5 4 4 5 5 4 4 3 3 3 3 2 4 8 11 13 12 11 11 10 9 17 30 27 13 6 6 4 6 11 15 15 17 16 13 11 9 8 8 9 11 11 10 7 7 9 8 7 9 13 12 8 7 7 6 6 10 14 14 12 11 9 7 9 12
18 27 30 23 18 13 10 17 34 36 24 15 11 7 6 8 6 5 7 5 3 5 6 5 4 3 2 2 2 2 3 6 8 6 6 8 9 10 12 11 7 10 15 11 3 3 5 5 8 13 15 15 15 12 9 8 8 8 10 12 13 11 9 8 9 9 7 7 11 13 11 8 7 7 6 6 9 12 11 10 10 10 9 10 12
21 21 15 8 10 16 19 27 35 26 12 13 15 8 5 11 12 7 5 4 4 5 5 4 3 3 2 1 2 3 3 4 2 1 5 10 12 12 11 10 10 12 11 5 2 5 7 7 9 12 12 11 10 8 9 9 9 10 14 15 13 11 9 8 9 10 10 13 15 15 11 7 7 7 6 7 9 10 9 10 11 11 10 11 13
15 9 5 9 21 28 21 18 21 17 8 9 14 12 11 12 8 3 3 4 5 5 4 3 3 3 2 2 2 2 2 1 2 7 12 15 16 14 10 8 9 12 12 9 9 9 6 5 7 9 9 10 10 10 10 8 10 15 17 15 11 9 7 7 9 12 15 17 19 17 11 7 7 8 6 6 9 9 8 10 12 11 9 8 10
15 11 12 18 26 29 22 12 10 13 13 11 11 14 14 8 3 2 4 4 3 4 4 3 2 2 2 1 -0 1 4 6 9 12 13 14 16 14 10 8 10 12 13 13 11 5 1 2 7 10 12 13 13 10 7 9 15 19 15 10 8 5 3 5 9 12 16 19 20 17 11 7 7 8 6 6 8 8 7 9 10 10 9 7 7
17 20 24 25 20 18 18 15 11 12 15 13 10 10 9 5 3 3 2 2 5 7 6 3 2 1 1 1 2 5 8 10 12 14 14 14 13 10 9 11 13 13 11 8 3 -1 2 8 12 13 15 15 11 7 9 14 18 15 9 6 6 1 -3 0 7 12 16 20 20 16 10 7 7 8 7 7 8 7 7 9 8 8 8 8 7
12 16 20 25 24 15 11 14 18 19 16 11 9 9 6 1 -0 1 3 7 10 9 5 3 1 1 2 4 5 7 9 11 13 13 11 10 10 11 12 13 11 9 8 6 5 7 11 12 10 11 13 13 9 8 13 16 13 8 6 6 4 -2 -8 -5 3 11 16 20 19 15 10 8 8 9 8 8 8 8 8 9 8 7 7 9 9
14 17 16 21 27 23 15 14 17 14 9 7 9 9 4 -2 -3 2 9 14 14 10 5 3 3 4 6 7 6 8 10 11 11 10 9 9 11 11 10 7 5 7 9 10 10 10 10 9 13 16 14 9 6 8 12 11 7 6 7 7 5 -0 -7 -7 1 12 17 19 19 17 12 9 9 10 9 8 9 8 8 9 9 7 6 8 10
14 18 18 17 18 18 20 24 23 16 12 12 13 13 7 0 -2 3 10 15 14 9 5 5 6 7 7 7 8 10 11 10 9 9 8 8 8 9 8 7 7 9 11 10 10 10 9 12 16 14 7 5 7 9 8 7 6 7 9 9 7 3 -5 -7 3 14 18 18 19 19 14 10 9 10 10 9 9 9 9 10 10 8 7 8 10
13 14 17 18 16 14 17 20 18 14 14 15 13 12 8 4 3 8 11 11 9 9 9 11 12 13 13 12 12 12 11 9 8 8 8 9 11 12 11 10 10 11 11 10 10 11 10 11 11 6 3 6 9 6 3 4 6 10 15 15 8 -1 -6 -3 8 17 19 19 20 17 13 9 10 11 11 10 10 9 9 11 11 9 7 7 9
15 14 13 13 13 15 18 19 17 16 17 18 17 17 13 6 3 4 4 5 8 11 11 11 12 13 13 12 10 10 9 9 10 11 11 12 13 12 10 11 11 11 10 9 9 10 10 10 10 8 7 9 8 7 8 11 13 17 20 13 -1 -8 -3 5 12 17 19 20 18 14 10 10 11 12 11 11 11 11 11 12 12 10 8 8 9
10 13 13 11 10 11 14 17 17 17 18 20 20 17 8 -1 -3 2 9 14 15 10 4 5 9 11 11 10 10 10 10 10 12 12 12 12 13 12 11 11 10 9 10 10 11 12 12 12 11 10 10 10 10 10 11 12 15 18 14 1 -9 -5 7 13 14 17 19 18 14 11 10 11 12 12 12 12 12 12 12 13 13 11 9 8 9
9 11 12 12 11 11 10 10 9 8 8 8 7 3 -2 -3 2 9 15 15 11 3 1 5 8 10 10 11 10 9 9 10 12 14 14 13 12 10 8 8 9 11 11 10 8 9 11 12 12 11 9 7 7 9 11 12 12 10 1 -7 -4 8 15 14 14 18 18 14 11 10 11 12 13 12 12 12 12 13 14 13 12 11 10 9 10
9 10 11 11 12 12 12 12 12 11 9 8 9 10 11 12 13 12 10 8 6 5 7 10 10 10 10 10 9 10 11 13 16 19 17 10 4 3 6 10 13 12 9 7 8 11 14 13 10 7 6 6 7 10 15 17 11 2 -4 -0 10 16 16 14 16 17 14 10 9 10 11 12 13 13 13 13 13 14 14 13 11 11 11 10 10
3 5 8 9 9 9 8 9 10 11 11 12 14 16 17 16 15 13 12 12 12 12 12 12 11 11 10 10 10 11 12 12 14 13 6 -2 -1 7 13 14 11 7 3 2 4 6 9 11 10 9 10 9 6 4 6 7 3 1 5 13 18 18 16 16 16 13 10 9 10 11 11 12 13 13 13 14 14 13 13 12 11 11 11 10 10
4 5 6 8 9 8 8 8 8 8 8 9 10 10 11 12 13 13 12 12 12 12 11 11 10 10 11 11 11 10 10 9 9 6 1 -1 5 11 11 8 5 4 3 3 3 3 7 13 14 10 6 3 1 0 1 2 4 8 14 17 17 16 16 15 12 10 10 10 10 10 12 13 14 14 14 14 13 13 12 12 11 11 10 10 9
9 9 9 9 9 9 9 10 10 10 10 9 8 8 8 9 9 10 10 11 11 11 10 9 10 11 11 11 10 9 8 8 8 7 7 8 9 9 7 6 7 7 7 7 7 7 8 10 9 6 3 3 5 7 7 8 12 16 16 15 15 16 14 11 9 9 10 10 10 12 13 14 14 14 14 13 13 12 11 11 10 9 9 10 10
10 10 10 10 10 10 11 12 13 13 12 12 11 10 10 9 9 10 10 10 9 9 9 9 9 9 8 8 8 9 9 10 10 10 10 9 8 8 9 9 9 8 8 8 8 8 9 10 9 8 8 8 9 9 10 13 17 18 16 14 15 13 11 9 9 9 10 10 12 13 14 14 14 14 13 12 11 11 9 9 9 9 8 9 10
Height
5778 5779 5780 5780 5781 5782 5783 5784 5785 5784 5784 5785 5786 5787 5787 5787 5788 5789 5790 5790 5790 5790 5790 5790 5790 5790 5790 5790 5790 5790 5789 5789 5788 5788 5787 5787 5786 5786 5786 5785 5785 5785 5785 5785 5784 5784 5784 5784 5783 5782 5781 5780 5779 5778 5776 5775 5773 5771 5769 5767 5765 5763 5760 5758 5755 5753 5750 5747 5744 5741 5738 5735 5732 5729 5726 5723 5720 5717 5713 5710 5707 5704 5701 5698 5696
5775 5776 5776 5777 5778 5779 5780 5781 5781 5781 5781 5783 5783 5784 5784 5784 5785 5786 5787 5787 5787 5788 5788 5788 5788 5788 5788 5788 5787 5787 5787 5786 5786 5785 5785 5784 5784 5783 5783 5783 5782 5782 5782 5782 5782 5782 5781 5781 5780 5779 5778 5777 5776 5774 5773 5771 5769 5768 5766 5764 5761 5759 5757 5754 5752 5749 5747 5744 5741 5737 5735 5732 5729 5725 5722 5719 5716 5714 5711 5707 5704 5701 5698 5695 5693
5772 5772 5773 5774 5774 5775 5776 5777 5778 5778 5778 5779 5780 5780 5781 5781 5782 5783 5784 5784 5785 5785 5785 5785 5785 5785 5786 5785 5785 5784 5784 5784 5783 5783 5782 5782 5781 5781 5780 5780 5780 5780 5780 5779 5779 5779 5778 5778 5777 5776 5775 5774 5773 5771 5770 5768 5766 5765 5763 5760 5758 5756 5753 5751 5748 5746 5743 5740 5737 5734 5731 5728 5725 5722 5719 5716 5713 5710 5707 5704 5701 5698 5695 5692 5690
5768 5769 5770 5770 5771 5772 5773 5774 5774 5775 5775 5776 5777 5777 5778 5779 5780 5781 5781 5781 5782 5782 5782 5782 5783 5783 5783 5783 5782 5782 5781 5781 5780 5780 5780 5779 5779 5778 5778 5777 5777 5777 5777 5777 5777 5776 5776 5775 5774 5773 5772 5771 5770 5768 5767 5765 5763 5762 5759 5757 5755 5753 5750 5748 5745 5743 5740 5737 5734 5731 5728 5725 5722 5719 5716 5712 5709 5706 5703 5701 5698 5696 5693 5689 5686
5764 5765 5766 5766 5767 5768 5769 5770 5771 5771 5772 5773 5774 5774 5775 5776 5777 5778 5778 5778 5779 5779 5779 5780 5780 5780 5780 5780 5779 5779 5778 5778 5778 5777 5777 5776 5776 5775 5775 5775 5774 5774 5774 5774 5774 5773 5773 5772 5771 5770 5769 5768 5767 5765 5763 5761 5760 5758 5756 5753 5751 5749 5747 5745 5742 5739 5736 5733 5730 5727 5725 5722 5719 5716 5713 5709 5706 5702 5700 5697 5694 5692 5690 5687 5684
5760 5761 5762 5762 5764 5765 5766 5767 5767 5768 5769 5770 5770 5771 5772 5773 5774 5775 5775 5775 5776 5776 5777 5777 5777 5777 5777 5777 5776 5776 5776 5775 5775 5774 5774 5774 5773 5773 5772 5772 5772 5772 5772 5771 5771 5770 5769 5769 5768 5767 5766 5765 5763 5761 5760 5758 5756 5754 5752 5750 5748 5746 5744 5741 5739 5736 5733 5730 5727 5724 5722 5719 5715 5712 5709 5706 5703 5700 5697 5694 5691 5688 5686 5684 5681
5756 5757 5758 5759 5760 5761 5762 5763 5764 5764 5765 5766 5767 5768 5769 5770 5771 5772 5772 5773 5773 5773 5774 5774 5774 5774 5774 5774 5774 5773 5773 5772 5772 5772 5771 5771 5771 5770 5770 5770 5769 5769 5769 5768 5768 5767 5766 5766 5765 5764 5763 5761 5760 5758 5756 5754 5752 5749 5746 5746 5745 5743 5741 5738 5735 5732 5729 5726 5724 5721 5718 5715 5711 5708 5705 5702 5699 5697 5694 5691 5688 5686 5683 5680 5677
5752 5753 5754 5755 5757 5758 5759 5759 5760 5761 5762 5763 5764 5765 5766 5767 5767 5768 5769 5770 5770 5770 5771 5771 5772 5772 5772 5771 5771 5771 5770 5770 5769 5769 5769 5768 5768 5768 5767 5767 5767 5766 5766 5765 5765 5764 5764 5763 5762 5761 5759 5758 5756 5754 5753 5751 5749 5745 5742 5742 5742 5740 5737 5735 5732 5729 5726 5723 5720 5718 5715 5712 5708 5705 5702 5699 5696 5693 5691 5688 5685 5682 5680 5676 5673
5748 5749 5750 5752 5753 5754 5755 5755 5756 5757 5758 5760 5761 5762 5763 5763 5764 5765 5766 5767 5767 5767 5768 5768 5769 5769 5769 5769 5768 5768 5767 5767 5766 5766 5766 5766 5765 5765 5765 5764 5764 5764 5763 5763 5762 5762 5761 5760 5759 5758 5756 5755 5753 5751 5750 5748 5746 5743 5740 5739 5738 5736 5733 5731 5728 5725 5722 5720 5717 5714 5712 5708 5705 5702 5699 5696 5693 5690 5688 5685 5682 5679 5676 5674 5671
5744 5746 5747 5749 5749 5750 5750 5752 5753 5754 5755 5757 5758 5758 5759 5760 5761 5762 5763 5763 5764 5764 5765 5766 5766 5766 5766 5766 5765 5765 5764 5764 5763 5763 5763 5763 5763 5762 5762 5762 5761 5761 5761 5760 5759 5759 5757 5757 5756 5754 5753 5751 5750 5749 5747 5745 5743 5740 5738 5736 5734 5732 5730 5727 5725 5722 5719 5716 5714 5711 5708 5705 5702 5699 5696 5693 5690 5688 5685 5682 5679 5676 5673 5670 5668
5741 5742 5743 5744 5745 5745 5747 5748 5750 5751 5752 5753 5754 5755 5756 5757 5758 5759 5760 5760 5761 5762 5762 5763 5763 5763 5763 5762 5762 5761 5761 5760 5760 5760 5760 5760 5760 5759 5759 5759 5758 5758 5757 5757 5756 5755 5754 5753 5752 5751 5750 5748 5747 5745 5744 5742 5739 5737 5735 5733 5730 5728 5726 5724 5721 5719 5716 5713 5711 5708 5705 5702 5699 5696 5693 5690 5688 5685 5682 5680 5677 5674 5670 5667 5664
5737 5738 5739 5740 5741 5742 5743 5745 5746 5748 5749 5750 5751 5751 5752 5753 5754 5755 5756 5757 5758 5759 5759 5759 5760 5760 5759 5759 5759 5758 5757 5757 5757 5757 5757 5757 5756 5756 5756 5755 5755 5755 5754 5753 5753 5752 5751 5750 5749 5748 5746 5745 5743 5742 5740 5738 5736 5734 5731 5729 5727 5725 5723 5720 5718 5715 5713 5710 5708 5705 5702 5699 5696 5693 5690 5687 5685 5682 5680 5677 5674 5672 5669 5665 5661
5733 5734 5735 5736 5737 5738 5739 5741 5742 5744 5745 5746 5747 5748 5749 5750 5751 5752 5753 5754 5755 5756 5756 5756 5756 5756 5756 5756 5755 5754 5754 5754 5754 5754 5754 5753 5753 5753 5752 5752 5751 5751 5750 5750 5749 5748 5747 5746 5746 5744 5743 5741 5740 5738 5736 5734 5732 5730 5728 5726 5724 5721 5719 5717 5715 5712 5710 5707 5705 5702 5699 5696 5693 5690 5687 5684 5682 5679 5677 5674 5671 5669 5666 5663 5660
5729 5730 5731 5731 5732 5734 5735 5737 5738 5740 5741 5742 5743 5744 5745 5747 5748 5748 5749 5751 5752 5752 5753 5753 5752 5752 5752 5752 5751 5751 5751 5751 5751 5751 5751 5750 5750 5749 5749 5748 5748 5747 5747 5746 5745 5745 5743 5742 5742 5740 5739 5737 5736 5734 5733 5731 5729 5727 5725 5722 5720 5718 5716 5714 5712 5709 5707 5704 5701 5699 5696 5693 5690 5687 5684 5681 5679 5676 5673 5671 5668 5665 5663 5660 5658
5725 5726 5727 5727 5728 5729 5731 5732 5734 5735 5737 5739 5740 5741 5742 5743 5744 5745 5746 5748 5748 5749 5749 5749 5749 5749 5749 5748 5748 5748 5747 5748 5748 5748 5748 5747 5747 5746 5746 5745 5744 5744 5743 5743 5742 5741 5740 5739 5738 5736 5735 5733 5732 5730 5729 5727 5725 5723 5721 5719 5717 5714 5712 5711 5708 5706 5704 5701 5698 5695 5692 5690 5687 5684 5681 5678 5675 5673 5670 5667 5664 5661 5659 5656 5654
5720 5721 5722 5723 5724 5725 5727 5728 5730 5731 5733 5735 5736 5737 5738 5740 5741 5742 5743 5744 5745 5745 5745 5745 5745 5745 5745 5745 5745 5744 5744 5745 5746 5746 5745 5744 5743 5743 5742 5742 5741 5740 5740 5739 5738 5737 5736 5735 5734 5732 5731 5729 5728 5726 5725 5723 5721 5719 5717 5715 5713 5711 5709 5707 5705 5703 5700 5698 5695 5692 5689 5686 5683 5681 5678 5675 5672 5669 5666 5664 5661 5658 5655 5652 5649
5715 5716 5717 5718 5719 5720 5722 5724 5726 5727 5729 5730 5732 5733 5735 5736 5737 5738 5739 5740 5740 5740 5740 5740 5740 5741 5741 5742 5741 5741 5741 5742 5743 5742 5741 5741 5740 5740 5739 5738 5738 5737 5736 5735 5734 5733 5732 5731 5730 5728 5727 5725 5724 5723 5721 5719 5717 5715 5714 5712 5709 5707 5706 5704 5701 5699 5697 5694 5691 5689 5686 5683 5680 5678 5675 5672 5669 5666 5663 5660 5657 5655 5652 5649 5645
5709 5710 5712 5713 5714 5715 5718 5720 5722 5723 5725 5726 5728 5729 5731 5732 5733 5734 5735 5735 5735 5735 5735 5736 5738 5739 5739 5738 5738 5738 5738 5739 5739 5738 5738 5737 5737 5736 5736 5735 5734 5733 5732 5731 5730 5730 5728 5727 5726 5724 5723 5722 5720 5719 5717 5715 5713 5712 5710 5708 5706 5704 5702 5700 5698 5695 5693 5690 5688 5685 5683 5680 5677 5674 5671 5668 5665 5662 5659 5656 5654 5651 5648 5646 5643
5704 5705 5706 5707 5708 5711 5713 5715 5718 5719 5721 5722 5723 5724 5727 5728 5728 5729 5731 5731 5731 5731 5733 5735 5736 5736 5735 5734 5734 5734 5734 5735 5735 5734 5733 5733 5733 5732 5732 5731 5730 5729 5728 5728 5727 5725 5724 5723 5722 5720 5719 5718 5716 5715 5713 5711 5710 5708 5706 5704 5702 5700 5698 5696 5694 5692 5690 5687 5684 5682 5679 5676 5674 5671 5668 5665 5662 5659 5656 5653 5650 5647 5645 5642 5640
5698 5699 5700 5701 5704 5707 5708 5710 5713 5715 5717 5717 5718 5720 5722 5723 5723 5725 5727 5728 5728 5728 5729 5730 5731 5730 5730 5729 5730 5730 5730 5730 5731 5730 5729 5729 5728 5728 5728 5727 5726 5725 5725 5724 5723 5721 5720 5719 5718 5716 5715 5714 5713 5711 5709 5708 5706 5704 5702 5700 5698 5696 5694 5693 5690 5688 5686 5683 5680 5678 5675 5673 5670 5667 5664 5661 5658 5655 5652 5649 5647 5644 5641 5639 5637
5692 5694 5696 5699 5701 5702 5704 5706 5708 5710 5711 5712 5713 5716 5717 5718 5719 5721 5723 5724 5724 5724 5724 5725 5725 5724 5725 5725 5725 5726 5726 5726 5726 5726 5724 5723 5723 5723 5724 5723 5722 5722 5721 5720 5719 5717 5716 5715 5714 5712 5711 5710 5709 5707 5706 5704 5702 5700 5698 5696 5695 5693 5691 5689 5687 5685 5682 5680 5677 5674 5672 5669 5667 5664 5661 5658 5654 5651 5648 5645 5643 5641 5638 5636 5633
5690 5692 5694 5695 5696 5697 5698 5700 5702 5703 5704 5707 5709 5711 5713 5714 5715 5717 5718 5719 5720 5719 5719 5720 5720 5720 5720 5721 5721 5722 5722 5722 5722 5721 5720 5720 5720 5720 5721 5720 5719 5718 5717 5716 5715 5713 5712 5711 5709 5708 5707 5706 5705 5704 5702 5700 5698 5696 5694 5693 5691 5689 5687 5685 5683 5681 5679 5676 5673 5671 5668 5666 5663 5660 5657 5654 5651 5648 5645 5642 5639 5637 5635 5633 5631
5686 5688 5689 5690 5690 5691 5693 5695 5696 5697 5699 5701 5703 5705 5707 5709 5711 5712 5712 5714 5715 5715 5714 5716 5717 5717 5717 5717 5718 5719 5719 5719 5719 5718 5717 5717 5718 5718 5717 5716 5715 5714 5713 5712 5710 5709 5708 5707 5705 5704 5703 5702 5701 5700 5698 5696 5694 5692 5691 5689 5687 5685 5683 5682 5680 5678 5675 5673 5670 5667 5665 5663 5660 5656 5653 5650 5647 5644 5641 5639 5636 5634 5632 5630 5628
5681 5684 5686 5687 5688 5690 5691 5691 5693 5694 5695 5696 5698 5700 5702 5704 5706 5707 5707 5709 5711 5711 5711 5712 5714 5715 5715 5715 5714 5714 5714 5715 5715 5714 5713 5714 5714 5714 5713 5712 5711 5710 5709 5707 5706 5704 5703 5703 5701 5700 5699 5698 5697 5696 5694 5692 5690 5689 5687 5685 5684 5682 5680 5678 5676 5674 5672 5669 5667 5664 5662 5659 5656 5653 5650 5647 5643 5641 5638 5635 5633 5631 5629 5627 5625
5679 5681 5682 5684 5685 5687 5688 5689 5690 5693 5694 5694 5695 5697 5699 5700 5701 5702 5702 5704 5706 5707 5707 5709 5710 5711 5712 5711 5709 5709 5710 5711 5711 5710 5709 5710 5710 5710 5709 5708 5707 5706 5704 5703 5702 5700 5699 5698 5697 5696 5695 5694 5693 5692 5690 5688 5687 5685 5684 5682 5680 5679 5677 5675 5673 5671 5668 5666 5663 5661 5658 5656 5653 5650 5647 5644 5640 5637 5635 5632 5630 5628 5627 5625 5622
5676 5677 5678 5680 5681 5683 5684 5685 5686 5689 5691 5692 5693 5695 5696 5697 5697 5697 5698 5700 5702 5703 5704 5705 5706 5707 5706 5705 5705 5706 5707 5707 5707 5706 5706 5706 5706 5706 5705 5704 5703 5701 5699 5698 5697 5696 5695 5694 5693 5692 5691 5689 5688 5687 5686 5684 5683 5682 5680 5678 5677 5675 5673 5671 5669 5667 5665 5663 5660 5658 5655 5652 5650 5647 5644 5641 5637 5634 5632 5629 5627 5626 5624 5622 5620
5673 5674 5675 5677 5678 5679 5680 5680 5680 5682 5684 5686 5688 5691 5694 5693 5693 5694 5695 5696 5696 5698 5699 5700 5701 5702 5701 5701 5701 5702 5703 5703 5703 5703 5702 5702 5702 5701 5700 5699 5698 5696 5695 5693 5692 5692 5691 5689 5688 5688 5686 5685 5684 5683 5682 5680 5679 5678 5676 5674 5673 5671 5669 5668 5665 5663 5661 5659 5657 5655 5652 5649 5647 5644 5641 5638 5635 5632 5629 5627 5625 5623 5621 5620 5617
5670 5670 5672 5673 5674 5675 5675 5675 5675 5676 5677 5678 5681 5686 5689 5690 5690 5690 5691 5691 5691 5692 5695 5696 5697 5698 5698 5697 5696 5696 5698 5699 5699 5698 5698 5698 5698 5697 5695 5694 5693 5692 5690 5689 5688 5687 5686 5685 5684 5684 5682 5681 5680 5679 5677 5676 5675 5674 5672 5670 5669 5667 5666 5664 5662 5660 5658 5656 5654 5651 5649 5646 5644 5641 5638 5635 5632 5629 5627 5624 5622 5620 5619 5617 5615
5666 5666 5667 5669 5669 5669 5670 5670 5670 5671 5671 5672 5674 5677 5682 5685 5686 5688 5688 5687 5686 5688 5691 5692 5693 5694 5694 5694 5692 5692 5693 5695 5693 5692 5693 5693 5693 5692 5691 5690 5688 5687 5686 5685 5684 5683 5682 5681 5680 5679 5678 5677 5676 5675 5673 5672 5671 5670 5668 5667 5665 5663 5662 5660 5658 5656 5655 5653 5651 5648 5645 5643 5641 5638 5635 5633 5630 5627 5625 5622 5620 5618 5616 5614 5612
5661 5662 5663 5663 5663 5664 5664 5664 5663 5664 5665 5666 5667 5669 5674 5678 5681 5684 5684 5683 5683 5685 5687 5688 5689 5690 5691 5691 5690 5689 5690 5691 5689 5687 5688 5688 5688 5687 5686 5685 5684 5683 5681 5680 5679 5678 5677 5677 5676 5675 5674 5673 5672 5671 5670 5668 5667 5666 5665 5663 5661 5660 5658 5657 5655 5653 5651 5649 5647 5644 5642 5640 5637 5635 5633 5630 5627 5624 5622 5619 5617 5615 5613 5611 5609
5656 5657 5657 5657 5658 5658 5657 5657 5656 5656 5657 5659 5661 5663 5667 5671 5675 5678 5679 5679 5680 5682 5683 5684 5685 5686 5686 5687 5687 5686 5687 5687 5685 5684 5684 5684 5683 5683 5682 5681 5680 5678 5677 5676 5675 5674 5673 5672 5672 5671 5670 5669 5668 5667 5666 5665 5664 5662 5661 5659 5657 5656 5654 5652 5651 5649 5647 5645 5643 5641 5639 5636 5634 5632 5629 5627 5624 5622 5619 5617 5614 5612 5610 5608 5606
5651 5651 5652 5652 5652 5651 5651 5651 5650 5649 5650 5653 5656 5658 5661 5665 5669 5671 5673 5674 5676 5677 5679 5679 5680 5681 5682 5682 5682 5682 5682 5682 5681 5680 5680 5679 5679 5679 5678 5677 5675 5673 5672 5671 5671 5670 5669 5668 5668 5667 5666 5665 5664 5662 5661 5661 5659 5658 5656 5655 5653 5651 5650 5648 5647 5645 5644 5642 5640 5638 5635 5633 5631 5629 5626 5624 5621 5619 5616 5614 5612 5610 5607 5605 5603
5645 5646 5645 5645 5644 5644 5645 5646 5645 5644 5645 5648 5651 5653 5656 5659 5662 5665 5667 5669 5671 5672 5673 5674 5675 5675 5676 5677 5677 5677 5677 5677 5676 5676 5675 5675 5675 5674 5673 5672 5670 5668 5667 5667 5666 5665 5665 5664 5664 5663 5661 5660 5659 5658 5657 5656 5654 5653 5652 5650 5649 5647 5645 5644 5643 5641 5640 5638 5636 5634 5632 5630 5628 5626 5623 5621 5618 5616 5613 5611 5609 5607 5605 5603 5600
5637 5638 5637 5637 5637 5637 5638 5639 5640 5639 5640 5644 5647 5649 5651 5654 5656 5659 5662 5664 5666 5667 5668 5669 5669 5670 5670 5671 5671 5671 5671 5671 5671 5671 5670 5670 5669 5668 5668 5667 5665 5663 5662 5662 5662 5661 5660 5660 5659 5658 5657 5656 5655 5653 5652 5651 5650 5648 5647 5646 5644 5643 5641 5640 5639 5637 5636 5634 5632 5630 5628 5626 5624 5622 5620 5617 5615 5613 5610 5608 5606 5604 5602 5600 5597
5630 5631 5631 5633 5634 5634 5633 5634 5635 5636 5637 5639 5642 5644 5647 5649 5652 5654 5657 5659 5661 5662 5663 5663 5663 5664 5665 5666 5666 5666 5666 5666 5666 5666 5665 5665 5664 5663 5662 5661 5660 5659 5658 5658 5657 5657 5656 5655 5654 5653 5652 5651 5650 5649 5648 5646 5645 5644 5642 5641 5640 5639 5637 5636 5635 5633 5632 5630 5628 5626 5624 5623 5621 5619 5617 5614 5612 5610 5607 5605 5603 5601 5599 5597 5595
5627 5628 5629 5630 5632 5631 5628 5629 5632 5633 5634 5636 5638 5640 5643 5645 5647 5650 5652 5654 5656 5657 5657 5658 5658 5660 5661 5662 5661 5660 5660 5660 5661 5661 5661 5660 5659 5658 5657 5656 5655 5655 5654 5653 5652 5652 5651 5650 5649 5648 5648 5646 5645 5644 5643 5642 5641 5639 5638 5637 5636 5635 5634 5632 5630 5629 5627 5626 5624 5622 5620 5619 5617 5615 5613 5611 5609 5606 5604 5602 5600 5598 5596 5594 5592
5624 5625 5624 5624 5626 5627 5626 5627 5628 5630 5631 5633 5634 5637 5639 5641 5644 5646 5648 5649 5651 5652 5652 5653 5654 5655 5656 5657 5656 5656 5655 5655 5656 5656 5656 5655 5654 5653 5652 5651 5651 5650 5649 5648 5647 5647 5647 5646 5645 5644 5643 5642 5641 5640 5639 5637 5636 5635 5633 5632 5632 5631 5629 5628 5626 5624 5622 5621 5619 5618 5616 5615 5613 5612 5610 5608 5605 5603 5601 5599 5597 5595 5593 5591 5589
5620 5621 5620 5619 5620 5622 5623 5624 5625 5626 5627 5629 5631 5633 5635 5637 5639 5641 5643 5644 5646 5647 5648 5649 5649 5650 5650 5651 5651 5651 5651 5650 5651 5651 5650 5649 5649 5648 5648 5647 5646 5645 5644 5643 5643 5643 5642 5641 5641 5640 5639 5638 5637 5635 5634 5633 5631 5630 5629 5628 5627 5626 5625 5623 5622 5620 5618 5616 5615 5613 5612 5611 5609 5608 5606 5604 5602 5600 5598 5596 5594 5592 5590 5588 5586
5616 5617 5617 5617 5617 5619 5620 5621 5623 5623 5624 5626 5627 5629 5631 5633 5635 5637 5638 5640 5641 5642 5643 5644 5645 5645 5645 5646 5646 5646 5646 5646 5646 5645 5645 5644 5644 5643 5643 5642 5641 5640 5639 5639 5639 5639 5638 5637 5636 5635 5634 5633 5632 5630 5629 5628 5627 5626 5625 5624 5623 5622 5621 5619 5617 5615 5613 5612 5610 5609 5608 5606 5605 5604 5602 5601 5598 5596 5594 5593 5591 5589 5587 5585 5583
5613 5614 5614 5614 5615 5616 5617 5618 5619 5619 5620 5621 5623 5624 5626 5628 5631 5633 5634 5636 5637 5638 5639 5639 5640 5640 5641 5641 5641 5641 5640 5641 5640 5640 5639 5639 5638 5638 5637 5637 5636 5635 5635 5635 5635 5634 5633 5632 5631 5630 5629 5628 5627 5626 5625 5624 5623 5622 5621 5620 5619 5617 5616 5615 5613 5611 5609 5607 5606 5604 5603 5602 5601 5600 5598 5597 5594 5593 5591 5589 5588 5586 5584 5582 5580
5610 5611 5611 5611 5612 5614 5615 5615 5615 5616 5616 5618 5619 5620 5622 5625 5627 5629 5630 5632 5633 5633 5634 5635 5635 5636 5636 5636 5636 5635 5635 5635 5635 5634 5634 5633 5633 5632 5632 5631 5631 5630 5630 5630 5630 5629 5628 5627 5626 5625 5624 5623 5622 5621 5620 5620 5619 5618 5617 5616 5614 5613 5612 5610 5609 5606 5604 5603 5601 5600 5599 5598 5597 5596 5594 5592 5591 5589 5587 5586 5584 5582 5580 5578 5577
5607 5607 5607 5608 5609 5610 5611 5611 5612 5613 5614 5615 5616 5618 5620 5622 5624 5625 5626 5627 5628 5629 5629 5630 5630 5631 5631 5631 5630 5630 5630 5630 5629 5628 5628 5627 5626 5626 5626 5626 5625 5624 5624 5624 5624 5623 5622 5621 5620 5620 5619 5618 5617 5616 5616 5615 5614 5613 5612 5611 5610 5609 5607 5606 5604 5602 5600 5598 5597 5596 5595 5594 5593 5591 5590 5588 5586 5585 5583 5582 5580 5579 5577 5575 5573
5603 5604 5604 5605 5605 5606 5607 5607 5608 5610 5610 5611 5613 5615 5617 5618 5619 5620 5621 5622 5622 5623 5624 5625 5625 5625 5625 5625 5625 5625 5625 5624 5623 5622 5621 5621 5620 5620 5620 5620 5619 5619 5619 5618 5618 5617 5616 5615 5615 5614 5614 5613 5612 5612 5611 5610 5610 5609 5608 5606 5605 5604 5603 5601 5599 5597 5595 5593 5592 5591 5590 5589 5588 5587 5585 5584 5582 5581 5579 5578 5577 5575 5573 5572 5570
5600 5600 5601 5602 5603 5603 5603 5604 5605 5606 5607 5608 5609 5611 5612 5614 5615 5615 5616 5616 5617 5617 5618 5619 5620 5620 5620 5620 5620 5619 5619 5618 5617 5616 5615 5615 5615 5614 5614 5613 5613 5613 5613 5613 5612 5611 5610 5610 5609 5609 5608 5608 5607 5607 5606 5605 5604 5603 5602 5601 5600 5599 5598 5596 5593 5592 5590 5589 5588 5587 5586 5585 5584 5582 5581 5579 5578 5577 5575 5574 5573 5571 5570 5568 5567
5596 5597 5597 5598 5599 5599 5600 5600 5601 5602 5603 5604 5606 5607 5608 5609 5609 5610 5611 5611 5611 5612 5613 5614 5614 5614 5614 5614 5613 5613 5612 5612 5611 5610 5609 5609 5608 5608 5608 5608 5607 5607 5607 5607 5606 5606 5605 5604 5604 5603 5603 5602 5602 5601 5601 5600 5599 5598 5597 5596 5595 5594 5592 5590 5588 5587 5585 5584 5583 5582 5581 5580 5579 5577 5576 5575 5573 5572 5571 5570 5569 5567 5566 5565 5563
5593 5593 5594 5594 5594 5595 5596 5596 5598 5599 5600 5601 5602 5603 5603 5604 5604 5605 5605 5606 5606 5607 5607 5607 5607 5607 5607 5607 5607 5606 5606 5605 5605 5604 5603 5603 5603 5603 5603 5602 5602 5602 5601 5601 5600 5600 5599 5599 5598 5598 5597 5597 5597 5596 5595 5594 5593 5593 5592 5591 5590 5588 5586 5584 5583 5582 5580 5579 5578 5577 5576 5575 5574 5573 5571 5570 5569 5568 5567 5566 5565 5563 5562 5561 5560
5589 5590 5590 5591 5591 5591 5592 5593 5594 5595 5595 5596 5597 5597 5598 5598 5599 5599 5600 5600 5601 5601 5601 5601 5600 5600 5600 5600 5600 5600 5599 5599 5599 5599 5598 5598 5597 5597 5597 5597 5596 5596 5595 5595 5595 5594 5594 5594 5593 5592 5592 5591 5591 5590 5589 5588 5588 5587 5586 5585 5583 5582 5580 5578 5577 5576 5575 5574 5573 5572 5571 5570 5569 5568 5567 5566 5565 5564 5563 5561 5560 5559 5558 5557 5556
5585 5585 5586 5586 5587 5587 5588 5588 5589 5589 5590 5590 5591 5591 5592 5592 5593 5594 5594 5594 5594 5594 5594 5594 5594 5594 5594 5594 5593 5593 5593 5593 5593 5593 5593 5592 5592 5591 5590 5590 5590 5590 5589 5589 5589 5589 5589 5588 5588 5587 5586 5585 5585 5584 5584 5583 5582 5581 5580 5578 5577 5575 5574 5573 5572 5571 5570 5569 5568 5567 5566 5565 5564 5563 5562 5561 5560 5559 5558 5557 5556 5555 5554 5553 5552
5580 5581 5581 5582 5582 5582 5583 5583 5583 5584 5584 5585 5585 5585 5586 5587 5588 5588 5588 5588 5588 5588 5588 5588 5588 5588 5588 5588 5588 5588 5587 5587 5586 5586 5586 5586 5586 5585 5585 5584 5584 5584 5584 5584 5584 5583 5583 5583 5582 5581 5580 5579 5579 5578 5577 5577 5576 5574 5573 5572 5570 5569 5568 5567 5566 5566 5565 5564 5563 5562 5561 5560 5560 5559 5558 5557 5556 5555 5554 5553 5552 5551 5550 5549 5548
5575 5575 5576 5576 5577 5577 5578 5578 5579 5579 5579 5579 5580 5580 5581 5581 5582 5582 5582 5583 5582 5582 5582 5582 5582 5582 5582 5582 5582 5582 5581 5581 5581 5580 5580 5580 5580 5579 5579 5579 5578 5578 5578 5578 5578 5577 5577 5576 5576 5575 5574 5573 5572 5571 5571 5570 5569 5568 5566 5565 5564 5564 5563 5562 5561 5560 5559 5559 5558 5557 5556 5556 5555 5554 5553 5552 5551 5550 5549 5548 5548 5547 5546 5545 5545
5569 5570 5570 5570 5571 5572 5572 5573 5573 5574 5574 5574 5574 5574 5575 5575 5575 5576 5576 5577 5577 5577 5576 5576 5576 5576 5576 5576 5575 5575 5575 5575 5575 5574 5574 5574 5573 5573 5573 5573 5572 5572 5572 5572 5571 5570 5570 5569 5568 5568 5567 5566 5566 5565 5564 5564 5563 5562 5560 5559 5559 5558 5557 5556 5555 5554 5554 5553 5552 5552 5551 5551 5550 5549 5548 5547 5546 5546 5545 5544 5543 5543 5542 5541 5540